�������l�o���
Date,Time,MP-1(��Sv/h),MP-2(��Sv/h),MP-3(��Sv/h),MP-4(��Sv/h),MP-5(��Sv/h),MP-6(��Sv/h),MP-7(��Sv/h),MP-8(��Sv/h),����,����(m/s),���J
2023/08/21,00:00,0.542,0.817,0.502,0.999,0.739,0.328,0.580,0.539,��,2.0,��
2023/08/21,00:10,0.541,0.815,0.500,1.001,0.741,0.329,0.579,0.538,��쐼,1.7,��
2023/08/21,00:20,0.542,0.819,0.501,1.000,0.739,0.329,0.578,0.538,��,1.5,��
2023/08/21,00:30,0.543,0.816,0.501,1.001,0.742,0.329,0.580,0.538,��,1.7,��
2023/08/21,00:40,0.541,0.819,0.501,1.000,0.742,0.329,0.580,0.539,��,1.1,��
2023/08/21,00:50,0.544,0.819,0.502,1.000,0.741,0.327,0.579,0.538,��,0.9,��
2023/08/21,01:00,0.542,0.818,0.502,0.999,0.741,0.327,0.579,0.538,��,1.5,��
2023/08/21,01:10,0.542,0.817,0.500,0.998,0.741,0.328,0.581,0.538,��,1.7,��
2023/08/21,01:20,0.544,0.819,0.502,0.999,0.739,0.326,0.580,0.539,��,1.7,��
2023/08/21,01:30,0.544,0.817,0.502,1.000,0.742,0.328,0.580,0.539,��,1.4,��
2023/08/21,01:40,0.543,0.817,0.502,1.001,0.741,0.328,0.580,0.537,��쐼,1.2,��
2023/08/21,01:50,0.543,0.817,0.502,1.001,0.740,0.328,0.579,0.537,�쐼,1.5,��
2023/08/21,02:00,0.543,0.818,0.502,1.000,0.741,0.328,0.579,0.537,�쐼,1.1,��
2023/08/21,02:10,0.544,0.816,0.502,0.998,0.738,0.328,0.582,0.538,���쐼,0.8,��
2023/08/21,02:20,0.541,0.817,0.501,1.000,0.740,0.327,0.579,0.538,���쐼,0.9,��
2023/08/21,02:30,0.543,0.816,0.503,1.000,0.740,0.327,0.579,0.537,���k��,1.1,��
2023/08/21,02:40,0.543,0.815,0.502,0.999,0.740,0.328,0.580,0.538,�k,1.5,��
2023/08/21,02:50,0.541,0.817,0.502,0.999,0.740,0.328,0.580,0.537,�k�k��,0.9,��
2023/08/21,03:00,0.542,0.818,0.501,0.999,0.741,0.327,0.580,0.537,�k�k��,1.2,��
2023/08/21,03:10,0.542,0.817,0.502,1.003,0.741,0.326,0.578,0.537,�k�k��,1.7,��
2023/08/21,03:20,0.543,0.816,0.502,1.001,0.741,0.328,0.579,0.539,�k��,1.7,��
2023/08/21,03:30,0.543,0.817,0.500,0.999,0.743,0.328,0.579,0.536,�k�k��,1.9,��
2023/08/21,03:40,0.542,0.816,0.500,1.002,0.741,0.329,0.581,0.537,�k��,1.2,��
2023/08/21,03:50,0.543,0.816,0.501,1.001,0.740,0.328,0.579,0.540,�k��,1.5,��
2023/08/21,04:00,0.544,0.815,0.500,1.000,0.740,0.328,0.580,0.539,�k��,2.6,��
2023/08/21,04:10,0.542,0.814,0.501,1.000,0.741,0.327,0.579,0.539,�k�k��,2.2,��
2023/08/21,04:20,0.542,0.817,0.500,1.001,0.740,0.326,0.579,0.537,�k�k��,2.9,��
2023/08/21,04:30,0.543,0.817,0.501,1.000,0.740,0.327,0.580,0.538,�k�k��,2.5,��
2023/08/21,04:40,0.542,0.817,0.501,1.002,0.740,0.329,0.580,0.537,�k�k��,2.8,��
2023/08/21,04:50,0.541,0.817,0.501,0.998,0.740,0.326,0.579,0.538,�k�k��,2.9,��
2023/08/21,05:00,0.542,0.815,0.502,1.001,0.741,0.327,0.579,0.539,�k�k��,2.8,��
2023/08/21,05:10,0.541,0.816,0.500,0.999,0.740,0.327,0.580,0.537,�k�k��,2.2,��
2023/08/21,05:20,0.541,0.816,0.500,0.999,0.739,0.327,0.581,0.537,�k��,2.3,��
2023/08/21,05:30,0.542,0.817,0.501,1.000,0.741,0.327,0.580,0.537,�k�k��,2.3,��
2023/08/21,05:40,0.541,0.817,0.501,0.998,0.741,0.327,0.580,0.537,�k�k��,2.6,��
2023/08/21,05:50,0.542,0.817,0.502,0.999,0.740,0.328,0.580,0.538,�k�k��,2.9,��
2023/08/21,06:00,0.542,0.816,0.499,1.000,0.740,0.326,0.581,0.537,�k�k��,2.6,��
2023/08/21,06:10,0.544,0.817,0.500,1.000,0.741,0.327,0.580,0.537,�k�k��,3.0,��
2023/08/21,06:20,0.541,0.817,0.500,1.002,0.740,0.326,0.580,0.537,�k�k��,3.4,��
2023/08/21,06:30,0.541,0.816,0.502,0.999,0.740,0.327,0.581,0.538,�k�k��,3.3,��
2023/08/21,06:40,0.541,0.816,0.500,0.999,0.739,0.326,0.581,0.537,�k�k��,2.6,��
2023/08/21,06:50,0.543,0.819,0.501,1.000,0.739,0.329,0.580,0.537,�k�k��,2.3,��
2023/08/21,07:00,0.542,0.818,0.501,0.997,0.739,0.326,0.581,0.539,�k�k��,2.0,��
2023/08/21,07:10,0.543,0.818,0.500,0.999,0.737,0.328,0.581,0.538,�k�k��,3.0,��
2023/08/21,07:20,0.542,0.817,0.500,0.999,0.740,0.328,0.581,0.538,�k,2.5,��
2023/08/21,07:30,0.542,0.818,0.502,1.000,0.740,0.327,0.582,0.538,�k,2.5,��
2023/08/21,07:40,0.542,0.817,0.501,0.999,0.737,0.327,0.582,0.537,�k�k��,2.0,��
2023/08/21,07:50,0.543,0.817,0.500,1.000,0.740,0.326,0.582,0.537,�k�k��,2.3,��
2023/08/21,08:00,-,-,-,-,-,-,-,-,-,-,-
2023/08/21,08:10,0.541,0.817,0.501,1.002,0.738,0.328,0.579,0.538,�k�k��,2.6,��
2023/08/21,08:20,0.541,0.817,0.500,0.999,0.737,0.326,0.581,0.538,�k�k��,2.3,��
2023/08/21,08:30,0.542,0.813,0.498,0.997,0.739,0.327,0.581,0.539,�k�k��,2.8,��
2023/08/21,08:40,0.541,0.815,0.501,0.999,0.739,0.327,0.580,0.537,�k��,2.6,��
2023/08/21,08:50,0.541,0.816,0.500,1.000,0.737,0.327,0.582,0.536,�k�k��,2.5,��
2023/08/21,09:00,0.541,0.814,0.499,0.997,0.740,0.326,0.582,0.536,�k��,2.8,��
2023/08/21,09:10,0.541,0.814,0.500,0.999,0.739,0.325,0.581,0.535,�k�k��,2.5,��
2023/08/21,09:20,0.543,0.815,0.499,1.003,0.739,0.324,0.581,0.536,�k�k��,3.2,��
2023/08/21,09:30,0.543,0.816,0.499,0.999,0.739,0.325,0.579,0.536,�k��,2.8,��
2023/08/21,09:40,0.542,0.816,0.499,1.000,0.737,0.324,0.578,0.535,���k��,2.0,��
2023/08/21,09:50,0.543,0.818,0.499,1.001,0.738,0.325,-,0.537,���k��,2.3,��
2023/08/21,10:00,0.543,0.818,0.501,1.000,0.738,0.326,-,0.536,���k��,2.6,��
2023/08/21,10:10,0.544,0.818,0.501,0.999,0.740,0.326,-,0.537,��,2.8,��
2023/08/21,10:20,0.542,0.816,0.501,0.999,0.741,0.325,-,0.536,��,1.9,��
2023/08/21,10:30,0.543,0.818,0.499,1.001,0.742,0.325,-,0.537,���쓌,2.5,��
2023/08/21,10:40,0.545,0.816,0.501,1.001,0.740,0.325,-,0.538,�쓌,2.6,��
2023/08/21,10:50,0.544,0.818,0.501,1.001,0.742,0.326,-,0.537,��쓌,3.2,��
2023/08/21,11:00,0.546,0.819,0.501,1.001,0.742,0.327,-,0.538,�쓌,3.7,��
2023/08/21,11:10,0.546,0.822,0.504,1.003,0.743,0.325,-,0.538,�쓌,2.9,��
2023/08/21,11:20,0.545,0.819,0.504,1.004,0.743,0.325,-,0.538,�쓌,3.5,��
2023/08/21,11:30,0.544,0.821,0.502,1.004,0.743,0.325,-,0.538,�쓌,3.7,��
2023/08/21,11:40,0.543,0.821,0.503,1.003,0.743,0.326,0.579,0.537,��쓌,4.1,��
2023/08/21,11:50,0.544,0.820,0.503,1.001,0.741,0.326,0.580,0.538,��쓌,4.0,��
2023/08/21,12:00,0.544,0.821,0.503,1.000,0.744,0.326,0.581,0.537,��쓌,4.3,��
2023/08/21,12:10,0.545,0.821,0.503,1.000,0.742,0.326,0.580,0.538,��쓌,4.2,��
2023/08/21,12:20,0.545,0.822,0.503,1.001,0.745,0.325,0.581,0.539,��쓌,4.5,��
2023/08/21,12:30,0.546,0.822,0.504,0.999,0.744,0.325,0.580,0.537,��쓌,5.2,��
2023/08/21,12:40,0.545,0.823,0.504,1.000,0.745,0.327,0.580,0.538,��쓌,5.3,��
2023/08/21,12:50,0.547,0.824,0.505,1.002,0.746,0.326,0.580,0.538,��쓌,3.9,��
2023/08/21,13:00,0.546,0.820,0.504,1.002,0.744,0.326,0.581,0.537,�쓌,3.7,��
2023/08/21,13:10,0.547,0.822,0.504,1.002,0.744,0.326,0.582,0.539,��쓌,6.0,��
2023/08/21,13:20,0.548,0.821,0.502,1.000,0.744,0.326,0.583,0.538,��쓌,4.5,��
2023/08/21,13:30,0.545,0.822,0.504,1.004,0.745,0.326,0.584,0.540,��쓌,4.1,��
2023/08/21,13:40,0.547,0.822,0.503,1.003,0.743,0.326,0.583,0.540,�쓌,3.5,��
2023/08/21,13:50,0.546,0.822,0.503,1.004,0.744,0.327,0.582,0.539,�쓌,4.6,��
2023/08/21,14:00,0.546,0.821,0.503,1.005,0.745,0.326,0.583,0.539,�쓌,4.9,��
2023/08/21,14:10,0.547,0.821,0.503,1.005,0.746,0.327,0.584,0.539,���쓌,2.0,��
2023/08/21,14:20,0.548,0.823,0.504,1.005,0.744,0.328,0.583,0.539,�쓌,2.8,��
2023/08/21,14:30,0.548,0.820,0.502,1.005,0.746,0.328,0.583,0.539,��쓌,4.3,��
2023/08/21,14:40,0.547,0.823,0.502,1.003,0.745,0.327,0.583,0.538,�쓌,2.3,��
2023/08/21,14:50,0.548,0.820,0.503,1.002,0.745,0.327,0.584,0.539,�쓌,3.4,��
2023/08/21,15:00,0.548,0.823,0.504,1.002,0.747,0.328,0.582,0.539,��쓌,4.0,��
2023/08/21,15:10,0.546,0.823,0.503,1.003,0.742,0.327,0.582,0.537,��쓌,3.3,��
2023/08/21,15:20,0.547,0.824,0.503,1.004,0.747,0.328,0.583,0.538,��,5.0,��
2023/08/21,15:30,0.547,0.822,0.503,1.002,0.745,0.327,0.582,0.538,��,4.8,��
2023/08/21,15:40,0.548,0.821,0.504,1.003,0.744,0.327,0.583,0.537,��,6.7,��
2023/08/21,15:50,0.547,0.823,0.505,1.004,0.746,0.327,0.582,0.538,��,5.4,��
2023/08/21,16:00,0.547,0.823,0.504,1.003,0.745,0.325,0.583,0.536,��,5.1,��
2023/08/21,16:10,0.546,0.822,0.502,1.004,0.744,0.327,0.582,0.537,��,4.7,��
2023/08/21,16:20,0.546,0.822,0.503,1.006,0.747,0.326,0.581,0.538,��쓌,5.5,��
2023/08/21,16:30,0.546,0.822,0.502,1.008,0.746,0.327,0.581,0.537,��,3.8,��
2023/08/21,16:40,0.545,0.823,0.503,1.006,0.746,0.326,0.581,0.537,��,7.2,��
2023/08/21,16:50,0.546,0.823,0.503,1.008,0.745,0.326,0.581,0.537,��,6.0,��
2023/08/21,17:00,0.545,0.822,0.503,1.008,0.744,0.326,0.581,0.536,��쓌,5.6,��
2023/08/21,17:10,0.546,0.822,0.503,1.006,0.744,0.326,0.580,0.536,��쓌,6.1,��
2023/08/21,17:20,0.545,0.823,0.503,1.005,0.744,0.325,0.579,0.535,��쓌,6.6,��
2023/08/21,17:30,0.545,0.822,0.501,1.005,0.745,0.326,0.580,0.537,��쓌,6.3,��
2023/08/21,17:40,0.544,0.821,0.501,1.004,0.742,0.327,0.580,0.537,��쓌,5.9,��
2023/08/21,17:50,0.547,0.822,0.502,1.006,0.743,0.325,0.580,0.537,��쓌,6.3,��
2023/08/21,18:00,0.545,0.821,0.502,1.004,0.744,0.326,0.580,0.536,��,6.3,��
2023/08/21,18:10,0.545,0.822,0.502,1.005,0.745,0.325,0.580,0.536,��,5.5,��
2023/08/21,18:20,0.544,0.821,0.503,1.004,0.742,0.326,0.578,0.537,��,6.1,��
2023/08/21,18:30,0.546,0.821,0.503,1.004,0.744,0.327,0.579,0.538,��,5.9,��
2023/08/21,18:40,0.545,0.820,0.501,1.005,0.742,0.326,0.579,0.536,��쓌,6.0,��
2023/08/21,18:50,0.545,0.822,0.502,1.006,0.743,0.326,0.580,0.538,��,5.8,��
2023/08/21,19:00,0.545,0.822,0.502,1.005,0.744,0.325,0.580,0.538,��쓌,6.5,��
2023/08/21,19:10,0.545,0.823,0.503,1.005,0.745,0.326,0.578,0.538,��,5.9,��
2023/08/21,19:20,0.546,0.821,0.502,1.005,0.743,0.325,0.580,0.537,��,6.2,��
2023/08/21,19:30,0.546,0.821,0.502,1.002,0.744,0.326,0.579,0.538,��,6.2,��
2023/08/21,19:40,0.548,0.822,0.502,1.006,0.745,0.327,0.580,0.538,��쓌,4.7,��
2023/08/21,19:50,0.546,0.824,0.502,1.006,0.745,0.325,0.582,0.536,��,5.4,��
2023/08/21,20:00,0.545,0.821,0.502,1.004,0.745,0.326,0.581,0.538,��,6.4,��
2023/08/21,20:10,0.546,0.821,0.502,1.004,0.745,0.327,0.580,0.537,��,6.1,��
2023/08/21,20:20,0.546,0.822,0.502,1.006,0.743,0.327,0.580,0.537,��,5.9,��
2023/08/21,20:30,0.546,0.822,0.503,1.005,0.744,0.326,0.580,0.537,��,5.3,��
2023/08/21,20:40,0.546,0.820,0.503,1.006,0.747,0.328,0.580,0.538,��,5.4,��
2023/08/21,20:50,0.545,0.823,0.502,1.004,0.744,0.326,0.580,0.535,��,5.5,��
2023/08/21,21:00,0.545,0.824,0.503,1.007,0.745,0.327,0.581,0.536,��,5.7,��
2023/08/21,21:10,0.545,0.824,0.504,1.006,0.746,0.326,0.582,0.537,��,6.4,��
2023/08/21,21:20,0.547,0.824,0.502,1.006,0.746,0.328,0.581,0.538,��,6.3,��
2023/08/21,21:30,0.547,0.823,0.503,1.005,0.744,0.326,0.581,0.536,��,5.9,��
2023/08/21,21:40,0.546,0.821,0.505,1.007,0.745,0.327,0.581,0.538,��,5.3,��
2023/08/21,21:50,0.544,0.823,0.503,1.007,0.747,0.327,0.582,0.538,��,4.1,��
2023/08/21,22:00,0.547,0.822,0.503,1.006,0.744,0.326,0.581,0.538,��,4.3,��
2023/08/21,22:10,0.547,0.820,0.502,1.006,0.744,0.328,0.580,0.539,��,4.4,��
2023/08/21,22:20,0.547,0.822,0.503,1.006,0.746,0.327,0.581,0.538,��,5.1,��
2023/08/21,22:30,0.547,0.822,0.502,1.007,0.743,0.327,0.580,0.537,��,4.8,��
2023/08/21,22:40,0.547,0.823,0.501,1.006,0.745,0.328,0.581,0.537,��,4.5,��
2023/08/21,22:50,0.548,0.821,0.502,1.007,0.747,0.328,0.580,0.537,��,4.4,��
2023/08/21,23:00,0.546,0.820,0.501,1.006,0.745,0.327,0.581,0.537,��,3.4,��
2023/08/21,23:10,0.546,0.823,0.501,1.008,0.746,0.327,0.582,0.537,��,2.9,��
2023/08/21,23:20,0.548,0.825,0.504,1.006,0.747,0.329,0.581,0.539,��,3.2,��
2023/08/21,23:30,0.547,0.824,0.504,1.007,0.747,0.329,0.582,0.537,��,2.6,��
2023/08/21,23:40,0.547,0.824,0.503,1.006,0.744,0.328,0.580,0.537,��쐼,2.3,��
2023/08/21,23:50,-,-,-,-,-,-,-,-,-,-,-
